JST562 YMML-YBBN

Flight info

Callsign JST562
Flight time 1h 56m
Altitude 39000
Route ML H66 LAGOB H252 BN
Aircraft A320/M-SDE3FGHIRWY/LB1

Departure

Time 2026-05-06 23:17
Airport Melbourne Airport (YMML)

Arrival

Time 2026-05-07 01:14
Airport Brisbane International Airport (YBBN)
Time Latitude Longitude Altitude Speed Heading
2026-05-06 22:53 -37.67628 144.84800 376 ft 0 kts 351°
2026-05-06 23:07 -37.67650 144.84804 376 ft 4 kts 351°
2026-05-06 23:07 -37.67670 144.84808 375 ft 4 kts
2026-05-06 23:08 -37.67693 144.84800 374 ft 3 kts 28°
2026-05-06 23:08 -37.67713 144.84793 373 ft 4 kts 322°
2026-05-06 23:08 -37.67723 144.84817 373 ft 4 kts 263°
2026-05-06 23:08 -37.67720 144.84844 373 ft 0 kts 261°
2026-05-06 23:11 -37.67721 144.84843 373 ft 1 kts 261°
2026-05-06 23:11 -37.67726 144.84798 372 ft 7 kts 262°
2026-05-06 23:11 -37.67735 144.84714 386 ft 12 kts 262°
2026-05-06 23:11 -37.67772 144.84609 372 ft 16 kts 220°
2026-05-06 23:12 -37.67834 144.84471 364 ft 21 kts 266°
2026-05-06 23:12 -37.67854 144.84274 361 ft 21 kts 261°
2026-05-06 23:12 -37.67787 144.84168 362 ft 19 kts 347°
2026-05-06 23:12 -37.67645 144.84143 367 ft 23 kts 351°
2026-05-06 23:13 -37.67481 144.84111 371 ft 25 kts 350°
2026-05-06 23:13 -37.67308 144.84080 376 ft 26 kts 351°
2026-05-06 23:13 -37.67128 144.84046 381 ft 27 kts 351°
2026-05-06 23:13 -37.66942 144.84010 387 ft 27 kts 353°
2026-05-06 23:14 -37.66755 144.83977 389 ft 26 kts 352°
2026-05-06 23:14 -37.66582 144.83944 401 ft 24 kts 348°
2026-05-06 23:14 -37.66435 144.83917 406 ft 18 kts 351°
2026-05-06 23:14 -37.66339 144.83990 410 ft 18 kts 82°
2026-05-06 23:15 -37.66352 144.84162 410 ft 21 kts 93°
2026-05-06 23:15 -37.66364 144.84362 409 ft 24 kts 93°
2026-05-06 23:15 -37.66375 144.84575 405 ft 19 kts 96°
2026-05-06 23:15 -37.66382 144.84729 411 ft 15 kts 82°
2026-05-06 23:16 -37.66321 144.84789 412 ft 12 kts
2026-05-06 23:16 -37.66244 144.84793 413 ft 8 kts
2026-05-06 23:16 -37.66222 144.84728 413 ft 11 kts 273°
2026-05-06 23:16 -37.66211 144.84543 412 ft 49 kts 274°
2026-05-06 23:17 -37.66170 144.83815 413 ft 114 kts 274°
2026-05-06 23:17 -37.66096 144.82690 851 ft 130 kts 272°
2026-05-06 23:17 -37.66017 144.81541 1632 ft 133 kts 269°
2026-05-06 23:17 -37.65945 144.80358 2337 ft 141 kts 266°
2026-05-06 23:18 -37.65890 144.79016 2670 ft 163 kts 265°
2026-05-06 23:18 -37.65833 144.77509 3054 ft 182 kts 266°
2026-05-06 23:18 -37.65760 144.75798 3372 ft 210 kts 268°
2026-05-06 23:18 -37.65656 144.73852 3921 ft 233 kts 267°
2026-05-06 23:19 -37.65532 144.71766 4813 ft 242 kts 268°
2026-05-06 23:19 -37.65365 144.69633 5843 ft 249 kts 272°
2026-05-06 23:19 -37.64774 144.67539 6792 ft 266 kts 291°
2026-05-06 23:19 -37.63594 144.65656 7694 ft 285 kts 311°
2026-05-06 23:20 -37.61860 144.64315 8614 ft 303 kts 334°
2026-05-06 23:20 -37.59816 144.63520 9540 ft 310 kts 338°
2026-05-06 23:20 -37.57667 144.63021 10375 ft 324 kts 353°
2026-05-06 23:20 -37.55328 144.63277 10713 ft 352 kts 13°
2026-05-06 23:21 -37.53035 144.64507 11268 ft 364 kts 34°
2026-05-06 23:21 -37.51098 144.66569 11994 ft 366 kts 53°
2026-05-06 23:21 -37.49526 144.69101 12756 ft 369 kts 57°
2026-05-06 23:21 -37.47961 144.71692 13492 ft 375 kts 57°
2026-05-06 23:22 -37.46202 144.74178 14185 ft 385 kts 50°
2026-05-06 23:22 -37.44338 144.76633 14848 ft 390 kts 51°
2026-05-06 23:22 -37.42449 144.79121 15503 ft 396 kts 52°
2026-05-06 23:22 -37.40535 144.81646 16086 ft 403 kts 52°
2026-05-06 23:23 -37.38582 144.84222 16650 ft 410 kts 53°
2026-05-06 23:23 -37.36592 144.86845 17220 ft 418 kts 54°
2026-05-06 23:23 -37.34569 144.89513 17770 ft 426 kts 54°
2026-05-06 23:23 -37.32505 144.92227 18340 ft 433 kts 54°
2026-05-06 23:24 -37.30410 144.94982 18859 ft 440 kts 54°
2026-05-06 23:24 -37.28279 144.97776 19423 ft 444 kts 54°
2026-05-06 23:24 -37.26129 145.00583 20002 ft 448 kts 54°
2026-05-06 23:24 -37.23959 145.03412 20700 ft 450 kts 55°
2026-05-06 23:25 -37.21785 145.06248 21306 ft 452 kts 56°
2026-05-06 23:25 -37.19600 145.09102 21861 ft 456 kts 56°
2026-05-06 23:25 -37.17399 145.11981 22400 ft 459 kts 56°
2026-05-06 23:25 -37.15178 145.14882 22936 ft 463 kts 56°
2026-05-06 23:26 -37.12940 145.17804 23456 ft 467 kts 57°
2026-05-06 23:26 -37.10682 145.20749 23974 ft 471 kts 57°
2026-05-06 23:26 -37.08403 145.23715 24455 ft 474 kts 56°
2026-05-06 23:26 -37.05918 145.26514 24901 ft 486 kts 48°
2026-05-06 23:27 -37.03305 145.29214 25410 ft 488 kts 49°
2026-05-06 23:27 -37.00714 145.31878 25896 ft 490 kts 49°
2026-05-06 23:27 -36.98075 145.34591 26380 ft 492 kts 48°
2026-05-06 23:27 -36.95396 145.37348 26859 ft 494 kts 48°
2026-05-06 23:28 -36.92740 145.40085 27305 ft 496 kts 48°
2026-05-06 23:28 -36.90105 145.42803 27749 ft 499 kts 48°
2026-05-06 23:28 -36.87418 145.45574 28180 ft 502 kts 48°
2026-05-06 23:28 -36.84720 145.48356 28616 ft 504 kts 48°
2026-05-06 23:29 -36.82010 145.51143 29068 ft 506 kts 47°
2026-05-06 23:29 -36.79283 145.53942 29591 ft 509 kts 47°
2026-05-06 23:29 -36.76545 145.56745 30049 ft 511 kts 46°
2026-05-06 23:29 -36.73792 145.59563 30442 ft 514 kts 46°
2026-05-06 23:30 -36.71021 145.62401 30804 ft 516 kts 45°
2026-05-06 23:30 -36.68241 145.65242 31167 ft 519 kts 44°
2026-05-06 23:30 -36.65441 145.68097 31524 ft 521 kts 44°
2026-05-06 23:30 -36.62630 145.70964 31869 ft 523 kts 43°
2026-05-06 23:31 -36.59808 145.73843 32225 ft 526 kts 43°
2026-05-06 23:31 -36.56980 145.76729 32710 ft 525 kts 42°
2026-05-06 23:31 -36.54158 145.79602 33272 ft 523 kts 41°
2026-05-06 23:31 -36.51351 145.82452 33888 ft 520 kts 40°
2026-05-06 23:32 -36.48555 145.85285 34440 ft 517 kts 39°
2026-05-06 23:32 -36.45773 145.88106 34857 ft 516 kts 39°
2026-05-06 23:32 -36.42995 145.90923 35255 ft 515 kts 39°
2026-05-06 23:32 -36.40227 145.93729 35702 ft 513 kts 38°
2026-05-06 23:33 -36.37508 145.96484 36137 ft 510 kts 38°
2026-05-06 23:33 -36.34764 145.99259 36597 ft 507 kts 38°
2026-05-06 23:33 -36.32034 146.02017 36999 ft 505 kts 37°
2026-05-06 23:33 -36.29321 146.04757 37466 ft 502 kts 37°
2026-05-06 23:34 -36.26630 146.07475 37972 ft 497 kts 37°
2026-05-06 23:34 -36.23959 146.10171 38470 ft 492 kts 37°
2026-05-06 23:34 -36.21315 146.12831 38882 ft 489 kts 37°
2026-05-06 23:34 -36.18674 146.15481 39146 ft 488 kts 36°
2026-05-06 23:35 -36.16042 146.18119 39212 ft 487 kts 36°
2026-05-06 23:35 -36.11666 146.22502 39241 ft 487 kts 36°
2026-05-06 23:36 -36.06798 146.27379 39248 ft 486 kts 36°
2026-05-06 23:36 -36.01542 146.32639 39261 ft 486 kts 36°
2026-05-06 23:37 -35.96283 146.37899 39249 ft 486 kts 35°
2026-05-06 23:37 -35.91018 146.43143 39252 ft 487 kts 35°
2026-05-06 23:38 -35.85743 146.48379 39254 ft 487 kts 35°
2026-05-06 23:38 -35.80465 146.53620 39238 ft 488 kts 34°
2026-05-06 23:39 -35.75176 146.58866 39251 ft 488 kts 34°
2026-05-06 23:39 -35.69885 146.64103 39258 ft 488 kts 34°
2026-05-06 23:40 -35.64580 146.69335 39265 ft 489 kts 34°
2026-05-06 23:40 -35.59310 146.74532 39263 ft 489 kts 34°
2026-05-06 23:41 -35.54010 146.79758 39265 ft 489 kts 34°
2026-05-06 23:41 -35.48701 146.84977 39254 ft 489 kts 33°
2026-05-06 23:42 -35.43381 146.90192 39256 ft 490 kts 33°
2026-05-06 23:42 -35.38057 146.95405 39253 ft 490 kts 33°
2026-05-06 23:43 -35.32722 147.00621 39236 ft 491 kts 33°
2026-05-06 23:43 -35.27373 147.05831 39235 ft 492 kts 33°
2026-05-06 23:44 -35.22016 147.11048 39249 ft 492 kts 33°
2026-05-06 23:44 -35.16656 147.16263 39244 ft 493 kts 33°
2026-05-06 23:45 -35.11283 147.21475 39251 ft 493 kts 33°
2026-05-06 23:45 -35.05906 147.26676 39266 ft 493 kts 33°
2026-05-06 23:46 -35.00530 147.31880 39241 ft 493 kts 32°
2026-05-06 23:46 -34.95146 147.37080 39255 ft 494 kts 32°
2026-05-06 23:47 -34.89759 147.42272 39276 ft 493 kts 32°
2026-05-06 23:47 -34.84379 147.47444 39258 ft 493 kts 32°
2026-05-06 23:48 -34.79037 147.52576 39262 ft 492 kts 32°
2026-05-06 23:48 -34.73665 147.57726 39266 ft 492 kts 32°
2026-05-06 23:49 -34.68288 147.62873 39239 ft 491 kts 32°
2026-05-06 23:49 -34.62922 147.68005 39264 ft 491 kts 32°
2026-05-06 23:50 -34.57553 147.73127 39265 ft 490 kts 32°
2026-05-06 23:50 -34.49515 147.80775 39250 ft 489 kts 32°
2026-05-06 23:51 -34.44163 147.85858 39259 ft 489 kts 32°
2026-05-06 23:51 -34.38821 147.90936 39263 ft 488 kts 32°
2026-05-06 23:52 -34.33474 147.95999 39242 ft 487 kts 31°
2026-05-06 23:52 -34.28176 148.00993 39267 ft 485 kts 31°
2026-05-06 23:53 -34.22867 148.06009 39271 ft 483 kts 31°
2026-05-06 23:53 -34.17578 148.11010 39245 ft 482 kts 30°
2026-05-06 23:54 -34.12285 148.15980 39256 ft 482 kts 30°
2026-05-06 23:54 -34.06992 148.20945 39266 ft 482 kts 30°
2026-05-06 23:55 -34.01708 148.25903 39261 ft 481 kts 30°
2026-05-06 23:55 -33.96429 148.30854 39261 ft 481 kts 30°
2026-05-06 23:56 -33.91149 148.35780 39257 ft 480 kts 30°
2026-05-06 23:56 -33.85864 148.40693 39252 ft 480 kts 30°
2026-05-06 23:57 -33.80587 148.45609 39225 ft 480 kts 29°
2026-05-06 23:57 -33.75302 148.50531 39234 ft 480 kts 29°
2026-05-06 23:58 -33.70015 148.55439 39243 ft 480 kts 29°
2026-05-06 23:58 -33.64730 148.60341 39190 ft 480 kts 29°
2026-05-06 23:59 -33.59477 148.65198 39218 ft 480 kts 29°
2026-05-06 23:59 -33.54186 148.70078 39224 ft 480 kts 29°
2026-05-07 00:00 -33.48894 148.74964 39232 ft 481 kts 29°
2026-05-07 00:00 -33.43605 148.79853 39227 ft 480 kts 28°
2026-05-07 00:01 -33.38323 148.84708 39236 ft 478 kts 28°
2026-05-07 00:01 -33.33041 148.89548 39239 ft 478 kts 28°
2026-05-07 00:02 -33.27776 148.94377 39203 ft 477 kts 28°
2026-05-07 00:02 -33.22511 148.99201 39213 ft 477 kts 28°
2026-05-07 00:03 -33.17248 149.04017 39217 ft 476 kts 28°
2026-05-07 00:03 -33.11986 149.08818 39213 ft 476 kts 28°
2026-05-07 00:04 -33.06727 149.13608 39190 ft 475 kts 27°
2026-05-07 00:04 -33.01471 149.18384 39210 ft 475 kts 27°
2026-05-07 00:05 -32.96244 149.23132 39212 ft 475 kts 27°
2026-05-07 00:05 -32.90948 149.27928 39187 ft 475 kts 26°
2026-05-07 00:06 -32.85718 149.32656 39204 ft 475 kts 26°
2026-05-07 00:06 -32.80462 149.37419 39214 ft 475 kts 26°
2026-05-07 00:07 -32.75213 149.42172 39201 ft 474 kts 26°
2026-05-07 00:07 -32.69963 149.46898 39187 ft 473 kts 25°
2026-05-07 00:08 -32.64723 149.51609 39192 ft 472 kts 25°
2026-05-07 00:08 -32.59497 149.56317 39196 ft 471 kts 25°
2026-05-07 00:09 -32.54268 149.60988 39165 ft 469 kts 24°
2026-05-07 00:09 -32.48990 149.65471 39187 ft 466 kts 22°
2026-05-07 00:10 -32.43674 149.69862 39187 ft 465 kts 22°
2026-05-07 00:10 -32.38410 149.74237 39189 ft 465 kts 23°
2026-05-07 00:11 -32.33130 149.78668 39163 ft 465 kts 23°
2026-05-07 00:11 -32.27851 149.83105 39164 ft 466 kts 23°
2026-05-07 00:12 -32.22571 149.87532 39172 ft 465 kts 23°
2026-05-07 00:12 -32.17290 149.91955 39186 ft 465 kts 23°
2026-05-07 00:13 -32.12008 149.96368 39186 ft 465 kts 23°
2026-05-07 00:13 -32.06719 150.00773 39185 ft 465 kts 23°
2026-05-07 00:14 -32.01433 150.05160 39192 ft 465 kts 22°
2026-05-07 00:14 -31.96142 150.09558 39145 ft 465 kts 23°
2026-05-07 00:15 -31.90857 150.13952 39178 ft 465 kts 22°
2026-05-07 00:15 -31.85578 150.18325 39190 ft 464 kts 22°
2026-05-07 00:16 -31.80303 150.22685 39194 ft 463 kts 22°
2026-05-07 00:16 -31.75038 150.27047 39155 ft 462 kts 22°
2026-05-07 00:17 -31.69780 150.31389 39180 ft 462 kts 22°
2026-05-07 00:17 -31.64520 150.35711 39194 ft 461 kts 22°
2026-05-07 00:18 -31.59299 150.39999 39192 ft 461 kts 22°
2026-05-07 00:18 -31.54049 150.44319 39179 ft 461 kts 22°
2026-05-07 00:19 -31.48808 150.48624 39193 ft 460 kts 22°
2026-05-07 00:19 -31.43563 150.52921 39198 ft 459 kts 22°
2026-05-07 00:20 -31.38325 150.57201 39200 ft 459 kts 22°
2026-05-07 00:20 -31.33090 150.61473 39171 ft 458 kts 22°
2026-05-07 00:21 -31.27857 150.65748 39177 ft 458 kts 22°
2026-05-07 00:21 -31.22634 150.70009 39178 ft 458 kts 22°
2026-05-07 00:22 -31.17399 150.74267 39178 ft 458 kts 21°
2026-05-07 00:22 -31.12162 150.78518 39146 ft 458 kts 21°
2026-05-07 00:23 -31.06940 150.82789 39162 ft 462 kts 25°
2026-05-07 00:23 -31.02013 150.87792 39165 ft 471 kts 29°
2026-05-07 00:24 -30.97131 150.92895 39179 ft 472 kts 29°
2026-05-07 00:24 -30.92249 150.97994 39172 ft 471 kts 29°
2026-05-07 00:25 -30.87391 151.03037 39187 ft 471 kts 29°
2026-05-07 00:25 -30.83294 151.07282 39184 ft 470 kts 29°
2026-05-07 00:26 -30.77608 151.13171 39187 ft 471 kts 29°
2026-05-07 00:26 -30.72719 151.18228 39167 ft 470 kts 28°
2026-05-07 00:27 -30.68620 151.22456 39167 ft 470 kts 28°
2026-05-07 00:27 -30.63728 151.27502 39171 ft 470 kts 28°
2026-05-07 00:28 -30.58866 151.32510 39168 ft 470 kts 28°
2026-05-07 00:28 -30.53970 151.37549 39137 ft 470 kts 28°
2026-05-07 00:29 -30.49075 151.42575 39159 ft 470 kts 28°
2026-05-07 00:30 -30.39284 151.52618 39161 ft 470 kts 28°
2026-05-07 00:30 -30.34387 151.57635 39113 ft 470 kts 28°
2026-05-07 00:31 -30.29487 151.62634 39130 ft 470 kts 28°
2026-05-07 00:31 -30.24579 151.67632 39150 ft 470 kts 28°
2026-05-07 00:32 -30.19668 151.72637 39141 ft 471 kts 28°
2026-05-07 00:32 -30.14751 151.77645 39144 ft 471 kts 28°
2026-05-07 00:33 -30.09826 151.82633 39139 ft 471 kts 28°
2026-05-07 00:33 -30.04898 151.87623 39141 ft 471 kts 28°
2026-05-07 00:34 -29.99972 151.92622 39141 ft 471 kts 28°
2026-05-07 00:34 -29.95044 151.97618 39113 ft 472 kts 27°
2026-05-07 00:35 -29.90102 152.02602 39125 ft 473 kts 27°
2026-05-07 00:35 -29.85180 152.07560 39132 ft 473 kts 27°
2026-05-07 00:36 -29.80230 152.12548 39130 ft 473 kts 27°
2026-05-07 00:36 -29.75248 152.17580 39078 ft 473 kts 27°
2026-05-07 00:37 -29.70286 152.22560 39101 ft 473 kts 27°
2026-05-07 00:37 -29.65313 152.27538 39110 ft 474 kts 27°
2026-05-07 00:38 -29.60378 152.32485 39110 ft 474 kts 27°
2026-05-07 00:38 -29.55408 152.37460 39080 ft 474 kts 27°
2026-05-07 00:39 -29.50443 152.42429 39073 ft 474 kts 27°
2026-05-07 00:39 -29.45463 152.47396 39083 ft 474 kts 27°
2026-05-07 00:40 -29.40475 152.52367 39085 ft 475 kts 27°
2026-05-07 00:40 -29.37963 152.54861 38650 ft 482 kts 26°
2026-05-07 00:40 -29.35426 152.57373 38255 ft 482 kts 26°
2026-05-07 00:41 -29.32882 152.59893 37930 ft 486 kts 27°
2026-05-07 00:41 -29.30320 152.62435 37662 ft 488 kts 27°
2026-05-07 00:41 -29.27760 152.64987 37394 ft 486 kts 27°
2026-05-07 00:41 -29.25219 152.67522 37134 ft 484 kts 27°
2026-05-07 00:42 -29.22688 152.70044 36877 ft 481 kts 27°
2026-05-07 00:42 -29.20162 152.72552 36631 ft 479 kts 27°
2026-05-07 00:42 -29.17651 152.75042 36386 ft 477 kts 27°
2026-05-07 00:42 -29.15145 152.77522 36128 ft 474 kts 27°
2026-05-07 00:43 -29.12659 152.79981 35829 ft 472 kts 27°
2026-05-07 00:43 -29.10181 152.82428 35591 ft 469 kts 27°
2026-05-07 00:43 -29.07720 152.84857 35358 ft 466 kts 26°
2026-05-07 00:43 -29.05276 152.87272 35122 ft 464 kts 26°
2026-05-07 00:44 -29.02839 152.89677 34887 ft 461 kts 26°
2026-05-07 00:44 -29.00415 152.92067 34663 ft 458 kts 26°
2026-05-07 00:44 -28.98020 152.94430 34267 ft 454 kts 26°
2026-05-07 00:44 -28.95634 152.96778 33772 ft 452 kts 26°
2026-05-07 00:45 -28.93264 152.99111 33324 ft 447 kts 26°
2026-05-07 00:45 -28.90915 153.01409 32826 ft 440 kts 24°
2026-05-07 00:45 -28.88481 153.03368 32440 ft 418 kts 15°
2026-05-07 00:45 -28.85955 153.04840 32028 ft 398 kts
2026-05-07 00:46 -28.83404 153.05854 31644 ft 379 kts 359°
2026-05-07 00:46 -28.80880 153.06521 31276 ft 369 kts 357°
2026-05-07 00:46 -28.78384 153.07154 30915 ft 365 kts 357°
2026-05-07 00:46 -28.75918 153.07787 30572 ft 362 kts 357°
2026-05-07 00:47 -28.73477 153.08417 30226 ft 358 kts 357°
2026-05-07 00:47 -28.71062 153.09045 29854 ft 355 kts 358°
2026-05-07 00:47 -28.68669 153.09671 29528 ft 351 kts 358°
2026-05-07 00:47 -28.66305 153.10290 29166 ft 345 kts 357°
2026-05-07 00:48 -28.63992 153.10896 28896 ft 339 kts 358°
2026-05-07 00:48 -28.61712 153.11491 28595 ft 333 kts 358°
2026-05-07 00:48 -28.59496 153.12066 28301 ft 328 kts 358°
2026-05-07 00:48 -28.57256 153.12642 28010 ft 325 kts 358°
2026-05-07 00:49 -28.55050 153.13201 27692 ft 325 kts 358°
2026-05-07 00:49 -28.52842 153.13759 27395 ft 325 kts 358°
2026-05-07 00:49 -28.50679 153.14308 27095 ft 324 kts 358°
2026-05-07 00:49 -28.48478 153.14868 26784 ft 324 kts 358°
2026-05-07 00:50 -28.46273 153.15430 26465 ft 325 kts 358°
2026-05-07 00:50 -28.44063 153.15995 26149 ft 325 kts 359°
2026-05-07 00:50 -28.41854 153.16561 25790 ft 325 kts 360°
2026-05-07 00:50 -28.39644 153.17127 25481 ft 326 kts
2026-05-07 00:51 -28.37432 153.17695 25146 ft 326 kts
2026-05-07 00:51 -28.35218 153.18265 24798 ft 326 kts
2026-05-07 00:51 -28.33012 153.18833 24446 ft 325 kts
2026-05-07 00:51 -28.30806 153.19401 24103 ft 325 kts
2026-05-07 00:52 -28.28598 153.19968 23739 ft 325 kts
2026-05-07 00:52 -28.26390 153.20533 23340 ft 325 kts
2026-05-07 00:52 -28.24191 153.21099 22977 ft 323 kts
2026-05-07 00:52 -28.21996 153.21664 22567 ft 322 kts
2026-05-07 00:53 -28.19822 153.22220 22190 ft 320 kts
2026-05-07 00:53 -28.17645 153.22684 21806 ft 317 kts 359°
2026-05-07 00:53 -28.15473 153.23067 21411 ft 316 kts 358°
2026-05-07 00:53 -28.13300 153.23416 21034 ft 315 kts 358°
2026-05-07 00:54 -28.11125 153.23758 20666 ft 316 kts 359°
2026-05-07 00:54 -28.08950 153.24107 20275 ft 315 kts 359°
2026-05-07 00:54 -28.06783 153.24465 19898 ft 315 kts
2026-05-07 00:54 -28.04603 153.24834 19494 ft 317 kts
2026-05-07 00:55 -28.02429 153.25207 19112 ft 316 kts
2026-05-07 00:55 -28.00251 153.25583 18714 ft 317 kts
2026-05-07 00:55 -27.98074 153.25962 18310 ft 317 kts
2026-05-07 00:55 -27.95893 153.26343 17881 ft 316 kts
2026-05-07 00:56 -27.93723 153.26720 17480 ft 315 kts
2026-05-07 00:56 -27.91563 153.27094 17083 ft 314 kts
2026-05-07 00:56 -27.89413 153.27467 16684 ft 312 kts
2026-05-07 00:56 -27.87275 153.27837 16308 ft 310 kts
2026-05-07 00:57 -27.85146 153.28208 15921 ft 309 kts
2026-05-07 00:57 -27.83023 153.28577 15544 ft 308 kts
2026-05-07 00:57 -27.80907 153.28941 15160 ft 308 kts
2026-05-07 00:57 -27.78820 153.29300 14786 ft 307 kts
2026-05-07 00:58 -27.76711 153.29662 14403 ft 307 kts
2026-05-07 00:58 -27.74603 153.30026 14023 ft 306 kts
2026-05-07 00:58 -27.72499 153.30391 13610 ft 306 kts
2026-05-07 00:58 -27.70399 153.30757 13219 ft 304 kts
2026-05-07 00:59 -27.66241 153.31476 12447 ft 301 kts
2026-05-07 00:59 -27.64175 153.31818 12075 ft 298 kts
2026-05-07 00:59 -27.62134 153.31926 11844 ft 291 kts 358°
2026-05-07 01:00 -27.60119 153.32019 11654 ft 289 kts 358°
2026-05-07 01:00 -27.58110 153.32116 11447 ft 288 kts 358°
2026-05-07 01:00 -27.56108 153.32214 11173 ft 287 kts 358°
2026-05-07 01:00 -27.54119 153.32313 10967 ft 286 kts 358°
2026-05-07 01:01 -27.52139 153.32412 10748 ft 285 kts 359°
2026-05-07 01:01 -27.50158 153.32508 10536 ft 284 kts 359°
2026-05-07 01:01 -27.48185 153.32603 10333 ft 283 kts 359°
2026-05-07 01:01 -27.46216 153.32697 10125 ft 283 kts 359°
2026-05-07 01:02 -27.44257 153.32791 9923 ft 282 kts 359°
2026-05-07 01:02 -27.42298 153.32883 9709 ft 281 kts 359°
2026-05-07 01:02 -27.40345 153.32972 9493 ft 281 kts 359°
2026-05-07 01:02 -27.38389 153.33064 9285 ft 282 kts 359°
2026-05-07 01:03 -27.36420 153.33201 9077 ft 284 kts
2026-05-07 01:03 -27.34508 153.33792 8829 ft 288 kts 20°
2026-05-07 01:03 -27.32694 153.34729 8532 ft 287 kts 22°
2026-05-07 01:03 -27.30884 153.35663 8240 ft 286 kts 22°
2026-05-07 01:04 -27.29078 153.36591 7951 ft 285 kts 22°
2026-05-07 01:04 -27.27278 153.37514 7647 ft 284 kts 22°
2026-05-07 01:04 -27.25482 153.38435 7367 ft 283 kts 22°
2026-05-07 01:04 -27.23690 153.39353 7094 ft 282 kts 22°
2026-05-07 01:05 -27.21877 153.40167 6814 ft 279 kts 11°
2026-05-07 01:05 -27.19965 153.40349 6536 ft 275 kts 353°
2026-05-07 01:05 -27.18138 153.39834 6233 ft 270 kts 334°
2026-05-07 01:05 -27.16571 153.38705 5932 ft 267 kts 318°
2026-05-07 01:06 -27.15159 153.37366 5720 ft 263 kts 318°
2026-05-07 01:06 -27.13882 153.35967 5603 ft 251 kts 303°
2026-05-07 01:06 -27.13227 153.34224 5542 ft 238 kts 279°
2026-05-07 01:06 -27.13276 153.32405 5327 ft 233 kts 255°
2026-05-07 01:07 -27.13896 153.30751 5118 ft 228 kts 245°
2026-05-07 01:07 -27.14566 153.29180 4906 ft 224 kts 246°
2026-05-07 01:07 -27.15222 153.27629 4694 ft 214 kts 246°
2026-05-07 01:07 -27.15905 153.26209 4507 ft 201 kts 233°
2026-05-07 01:08 -27.16899 153.25180 4374 ft 192 kts 214°
2026-05-07 01:08 -27.18079 153.24489 4163 ft 191 kts 210°
2026-05-07 01:08 -27.19264 153.23814 3923 ft 192 kts 209°
2026-05-07 01:08 -27.20456 153.23136 3677 ft 192 kts 210°
2026-05-07 01:09 -27.21638 153.22463 3442 ft 187 kts 210°
2026-05-07 01:09 -27.22779 153.21813 3187 ft 181 kts 210°
2026-05-07 01:09 -27.23882 153.21185 2952 ft 175 kts 210°
2026-05-07 01:09 -27.24951 153.20576 2723 ft 169 kts 210°
2026-05-07 01:10 -27.25963 153.19999 2507 ft 155 kts 211°
2026-05-07 01:10 -27.26880 153.19477 2314 ft 141 kts 211°
2026-05-07 01:10 -27.27733 153.18991 2128 ft 135 kts 212°
2026-05-07 01:10 -27.28556 153.18520 1964 ft 131 kts 211°
2026-05-07 01:11 -27.29364 153.18059 1783 ft 130 kts 211°
2026-05-07 01:11 -27.30168 153.17600 1613 ft 131 kts 211°
2026-05-07 01:11 -27.30980 153.17136 1415 ft 131 kts 211°
2026-05-07 01:11 -27.31788 153.16675 1242 ft 130 kts 211°
2026-05-07 01:12 -27.32597 153.16213 1064 ft 131 kts 211°
2026-05-07 01:12 -27.33399 153.15755 898 ft 130 kts 209°
2026-05-07 01:12 -27.34211 153.15291 737 ft 133 kts 209°
2026-05-07 01:12 -27.35040 153.14818 574 ft 133 kts 210°
2026-05-07 01:13 -27.35877 153.14345 380 ft 135 kts 210°
2026-05-07 01:13 -27.36707 153.13867 218 ft 136 kts 212°
2026-05-07 01:13 -27.37259 153.13553 110 ft 133 kts 212°
2026-05-07 01:13 -27.38057 153.13092 28 ft 118 kts 207°
2026-05-07 01:14 -27.38669 153.12742 22 ft 48 kts 207°
2026-05-07 01:14 -27.38900 153.12586 22 ft 33 kts 219°
2026-05-07 01:14 -27.39003 153.12460 20 ft 31 kts 232°
2026-05-07 01:14 -27.39121 153.12259 23 ft 17 kts 236°
2026-05-07 01:15 -27.39133 153.12178 22 ft 16 kts 295°
2026-05-07 01:15 -27.39026 153.12170 22 ft 21 kts 27°
2026-05-07 01:15 -27.38886 153.12254 22 ft 25 kts 27°
2026-05-07 01:15 -27.38720 153.12348 23 ft 28 kts 26°
2026-05-07 01:16 -27.38576 153.12408 22 ft 17 kts 343°
2026-05-07 01:16 -27.38517 153.12327 22 ft 10 kts 288°
2026-05-07 01:16 -27.38537 153.12274 21 ft 6 kts 238°
2026-05-07 01:16 -27.38551 153.12249 21 ft 2 kts 240°
2026-05-07 01:17 -27.38556 153.12238 23 ft 1 kts 240°
2026-05-07 01:17 -27.38557 153.12236 23 ft 0 kts 240°